This is the latest recevied weather packets stored in our database for station/object OE6PLD-13. If no packets are shown the sender has not sent any weather packets the latest 10 day(s).
| Time | Temp. | Humidity | Pressure | Rain* | Wind** | Luminosity | Snow |
|---|---|---|---|---|---|---|---|
| 1778113878 | 11.67° C | 87% | 1013.9 hPa | 0.76 mm | - | 0 W/m² | - |
| 1778113695 | 11.67° C | 87% | 1014.1 hPa | 0.76 mm | - | 0 W/m² | - |
| 1778113512 | 11.67° C | 87% | 1014 hPa | 0.76 mm | - | 0 W/m² | - |
| 1778113328 | 11.67° C | 87% | 1013.9 hPa | 0.76 mm | - | 0 W/m² | - |
| 1778113145 | 11.67° C | 87% | 1013.9 hPa | 0.76 mm | - | 0 W/m² | - |
| 1778112961 | 11.67° C | 87% | 1014.2 hPa | 0.76 mm | - | 0 W/m² | - |
| 1778112778 | 12.22° C | 87% | 1014 hPa | 0.76 mm | - | 0 W/m² | - |
| 1778112595 | 12.22° C | 87% | 1014.1 hPa | 0.76 mm | - | 0 W/m² | - |
| 1778112411 | 12.22° C | 86% | 1014 hPa | 0.76 mm | - | 0 W/m² | - |
| 1778112228 | 12.22° C | 86% | 1014.1 hPa | 0.76 mm | - | 0 W/m² | - |
| 1778112045 | 12.22° C | 86% | 1014 hPa | 0.76 mm | - | 0 W/m² | - |
| 1778111861 | 12.22° C | 86% | 1014 hPa | 0.76 mm | - | 0 W/m² | - |
| 1778111678 | 12.22° C | 86% | 1014 hPa | 0.76 mm | - | 0 W/m² | - |
| 1778111495 | 12.22° C | 85% | 1014.1 hPa | 0.76 mm | - | 0 W/m² | - |
| 1778111311 | 12.78° C | 84% | 1014.1 hPa | 0.76 mm | - | 0 W/m² | - |
| 1778111128 | 12.78° C | 84% | 1014.2 hPa | 0.76 mm | - | 0 W/m² | - |
| 1778110945 | 12.78° C | 83% | 1014.1 hPa | 0.76 mm | - | 0 W/m² | - |
| 1778110761 | 13.33° C | 82% | 1014 hPa | 0.76 mm | - | 0 W/m² | - |
| 1778110578 | 13.89° C | 81% | 1013.8 hPa | 0.76 mm | - | 0 W/m² | - |
| 1778110395 | 15° C | 79% | 1013.8 hPa | 0.76 mm | - | 0 W/m² | - |
| 1778110211 | 15.56° C | 77% | 1014 hPa | 0.76 mm | - | 0 W/m² | - |
| 1778110028 | 15° C | 77% | 1013.9 hPa | 0.76 mm | - | 0 W/m² | - |
| 1778109845 | 15° C | 77% | 1013.7 hPa | 0.76 mm | - | 0 W/m² | - |
| 1778109661 | 15° C | 78% | 1013.9 hPa | 0.76 mm | - | 0 W/m² | - |
| 1778109478 | 15° C | 79% | 1014.1 hPa | 0.76 mm | - | 0 W/m² | - |
* Rain latest hour (hover to see other rain measurements)
** Current wind speed in m/s (hover to see current wind gust speed)